Precipitable_Water
0.42 0.42 0.42 0.42 0.42 0.42 0.42 0.42 0.44 0.44 0.42 0.42 0.40 0.40 0.40 0.40 0.38 0.38 0.38 0.38 0.36 0.36 0.36 0.34 0.34 0.34 0.34 0.34 0.32 0.32 0.30 0.30 0.28 0.26 0.26 0.24 0.22 0.22 0.22 0.22 0.20 0.20 0.20 0.20 0.20 0.20 0.20 0.22 0.22 0.22 0.20 0.22 0.22 0.24 0.26 0.26 0.26 0.28 0.28 0.28 0.28 0.26 0.26 0.26 0.26 0.24 0.24 0.24 0.24
0.42 0.42 0.42 0.42 0.42 0.44 0.44 0.44 0.44 0.44 0.42 0.42 0.40 0.40 0.40 0.40 0.38 0.38 0.36 0.36 0.36 0.36 0.34 0.34 0.34 0.34 0.32 0.32 0.32 0.30 0.28 0.26 0.26 0.24 0.24 0.22 0.22 0.20 0.20 0.20 0.20 0.20 0.18 0.18 0.18 0.18 0.18 0.18 0.18 0.18 0.18 0.20 0.20 0.20 0.22 0.24 0.26 0.26 0.26 0.26 0.26 0.26 0.26 0.26 0.26 0.26 0.26 0.24 0.24
0.42 0.42 0.44 0.44 0.44 0.44 0.44 0.44 0.42 0.42 0.40 0.40 0.40 0.40 0.40 0.38 0.38 0.36 0.36 0.36 0.36 0.36 0.34 0.34 0.34 0.32 0.32 0.32 0.30 0.28 0.26 0.24 0.24 0.22 0.22 0.20 0.20 0.20 0.20 0.20 0.20 0.20 0.20 0.18 0.18 0.18 0.18 0.18 0.18 0.18 0.18 0.18 0.18 0.18 0.20 0.22 0.22 0.24 0.24 0.24 0.24 0.24 0.26 0.26 0.26 0.26 0.26 0.26 0.24
0.44 0.44 0.44 0.44 0.44 0.44 0.42 0.42 0.42 0.40 0.40 0.40 0.40 0.40 0.38 0.38 0.36 0.36 0.36 0.36 0.34 0.34 0.34 0.32 0.32 0.32 0.30 0.30 0.28 0.24 0.24 0.22 0.22 0.20 0.20 0.20 0.20 0.20 0.20 0.20 0.20 0.20 0.20 0.20 0.20 0.18 0.18 0.18 0.18 0.18 0.18 0.18 0.18 0.18 0.18 0.18 0.20 0.22 0.22 0.22 0.22 0.22 0.24 0.24 0.24 0.26 0.26 0.26 0.24
0.44 0.44 0.44 0.44 0.44 0.42 0.42 0.42 0.40 0.40 0.40 0.40 0.38 0.38 0.38 0.38 0.36 0.36 0.36 0.34 0.34 0.34 0.32 0.32 0.30 0.30 0.28 0.26 0.24 0.22 0.22 0.20 0.20 0.20 0.20 0.20 0.20 0.20 0.20 0.20 0.20 0.20 0.20 0.20 0.20 0.20 0.20 0.18 0.18 0.18 0.18 0.18 0.18 0.18 0.18 0.18 0.18 0.20 0.20 0.20 0.20 0.20 0.22 0.22 0.24 0.24 0.24 0.24 0.24
0.44 0.44 0.44 0.44 0.42 0.42 0.40 0.40 0.40 0.40 0.38 0.38 0.38 0.38 0.36 0.36 0.36 0.34 0.34 0.32 0.32 0.32 0.30 0.30 0.28 0.26 0.24 0.22 0.22 0.20 0.20 0.20 0.20 0.20 0.20 0.20 0.20 0.20 0.20 0.20 0.20 0.20 0.20 0.20 0.20 0.20 0.20 0.20 0.18 0.18 0.18 0.18 0.18 0.18 0.18 0.18 0.18 0.18 0.18 0.18 0.18 0.20 0.20 0.20 0.22 0.22 0.22 0.22 0.22
0.44 0.44 0.42 0.42 0.40 0.40 0.40 0.40 0.40 0.40 0.38 0.38 0.36 0.36 0.36 0.34 0.34 0.32 0.32 0.32 0.30 0.30 0.28 0.26 0.24 0.22 0.22 0.20 0.20 0.20 0.20 0.20 0.20 0.20 0.20 0.20 0.20 0.20 0.20 0.20 0.20 0.20 0.20 0.20 0.20 0.18 0.18 0.18 0.18 0.18 0.18 0.18 0.18 0.18 0.18 0.18 0.18 0.18 0.18 0.18 0.18 0.18 0.18 0.18 0.20 0.20 0.22 0.22 0.20
0.42 0.42 0.40 0.40 0.40 0.40 0.40 0.40 0.40 0.38 0.38 0.36 0.36 0.34 0.34 0.34 0.32 0.30 0.30 0.30 0.28 0.26 0.24 0.24 0.22 0.22 0.20 0.20 0.20 0.20 0.20 0.20 0.20 0.20 0.20 0.20 0.20 0.20 0.20 0.20 0.20 0.20 0.20 0.18 0.18 0.18 0.18 0.18 0.18 0.18 0.18 0.18 0.18 0.18 0.18 0.18 0.18 0.18 0.20 0.18 0.20 0.20 0.20 0.20 0.20 0.20 0.20 0.20 0.20
0.40 0.40 0.40 0.40 0.40 0.40 0.40 0.38 0.38 0.38 0.36 0.36 0.34 0.34 0.32 0.32 0.30 0.30 0.28 0.28 0.26 0.24 0.24 0.22 0.20 0.20 0.20 0.20 0.18 0.18 0.18 0.18 0.18 0.18 0.18 0.20 0.18 0.18 0.18 0.18 0.18 0.18 0.18 0.18 0.18 0.18 0.18 0.18 0.18 0.18 0.18 0.18 0.18 0.18 0.18 0.18 0.18 0.18 0.18 0.20 0.20 0.20 0.20 0.20 0.20 0.20 0.20 0.20 0.20
0.38 0.38 0.40 0.40 0.40 0.38 0.38 0.38 0.38 0.36 0.34 0.34 0.32 0.32 0.32 0.30 0.28 0.26 0.24 0.24 0.24 0.22 0.22 0.20 0.20 0.20 0.18 0.18 0.18 0.18 0.18 0.18 0.18 0.18 0.18 0.18 0.18 0.18 0.18 0.18 0.18 0.18 0.18 0.18 0.18 0.18 0.18 0.18 0.18 0.18 0.18 0.18 0.18 0.18 0.18 0.18 0.18 0.18 0.18 0.18 0.20 0.20 0.20 0.20 0.20 0.20 0.20 0.20 0.20
0.40 0.40 0.40 0.40 0.38 0.38 0.36 0.36 0.34 0.34 0.32 0.32 0.30 0.30 0.28 0.28 0.26 0.24 0.24 0.22 0.22 0.20 0.20 0.20 0.18 0.18 0.18 0.18 0.18 0.18 0.18 0.18 0.18 0.18 0.18 0.18 0.18 0.16 0.16 0.16 0.16 0.16 0.16 0.16 0.16 0.16 0.16 0.18 0.18 0.18 0.18 0.18 0.18 0.18 0.18 0.18 0.18 0.18 0.18 0.18 0.20 0.20 0.20 0.20 0.20 0.20 0.20 0.20 0.20
0.40 0.40 0.38 0.38 0.38 0.36 0.36 0.34 0.34 0.32 0.30 0.30 0.28 0.28 0.26 0.26 0.24 0.22 0.22 0.20 0.20 0.18 0.18 0.18 0.18 0.18 0.18 0.18 0.18 0.18 0.18 0.18 0.16 0.16 0.16 0.16 0.16 0.16 0.16 0.16 0.16 0.16 0.16 0.16 0.16 0.16 0.16 0.16 0.16 0.16 0.18 0.18 0.18 0.18 0.18 0.18 0.20 0.20 0.20 0.20 0.20 0.20 0.20 0.20 0.20 0.20 0.20 0.20 0.20
0.40 0.40 0.38 0.36 0.36 0.34 0.34 0.34 0.32 0.30 0.30 0.28 0.26 0.26 0.24 0.24 0.22 0.22 0.20 0.20 0.18 0.18 0.18 0.18 0.18 0.18 0.18 0.16 0.16 0.16 0.16 0.16 0.16 0.16 0.14 0.14 0.14 0.14 0.14 0.14 0.14 0.14 0.16 0.16 0.16 0.16 0.16 0.16 0.16 0.16 0.16 0.18 0.18 0.18 0.18 0.20 0.20 0.20 0.20 0.20 0.20 0.20 0.20 0.20 0.20 0.20 0.20 0.20 0.20
0.40 0.38 0.36 0.36 0.34 0.34 0.32 0.32 0.30 0.30 0.28 0.26 0.26 0.24 0.24 0.22 0.22 0.20 0.18 0.18 0.18 0.18 0.18 0.18 0.18 0.16 0.16 0.16 0.16 0.16 0.16 0.16 0.16 0.14 0.14 0.14 0.14 0.14 0.14 0.14 0.14 0.14 0.16 0.16 0.16 0.16 0.16 0.16 0.16 0.16 0.18 0.18 0.18 0.18 0.18 0.20 0.20 0.20 0.20 0.20 0.20 0.20 0.20 0.20 0.20 0.20 0.22 0.20 0.20
0.38 0.36 0.34 0.34 0.34 0.32 0.32 0.30 0.30 0.28 0.26 0.24 0.24 0.22 0.22 0.20 0.20 0.20 0.18 0.18 0.18 0.18 0.18 0.16 0.16 0.16 0.16 0.16 0.16 0.16 0.14 0.14 0.14 0.14 0.14 0.14 0.14 0.14 0.14 0.14 0.14 0.14 0.16 0.16 0.16 0.16 0.16 0.16 0.16 0.18 0.18 0.18 0.18 0.18 0.18 0.20 0.20 0.20 0.20 0.20 0.20 0.20 0.20 0.20 0.22 0.22 0.22 0.22 0.22
0.36 0.34 0.34 0.32 0.32 0.32 0.30 0.30 0.28 0.26 0.24 0.22 0.22 0.22 0.20 0.20 0.20 0.18 0.18 0.18 0.18 0.18 0.16 0.16 0.16 0.16 0.16 0.16 0.14 0.14 0.14 0.14 0.14 0.14 0.14 0.14 0.14 0.14 0.14 0.14 0.14 0.14 0.14 0.16 0.16 0.16 0.16 0.16 0.18 0.18 0.18 0.18 0.18 0.18 0.18 0.20 0.20 0.20 0.20 0.20 0.20 0.20 0.22 0.22 0.22 0.22 0.22 0.22 0.22
0.34 0.34 0.32 0.32 0.30 0.30 0.28 0.28 0.26 0.24 0.22 0.22 0.20 0.20 0.20 0.18 0.18 0.18 0.18 0.18 0.18 0.16 0.16 0.16 0.16 0.16 0.14 0.14 0.14 0.14 0.14 0.14 0.14 0.14 0.14 0.14 0.14 0.14 0.14 0.14 0.14 0.14 0.14 0.16 0.16 0.16 0.16 0.16 0.18 0.18 0.18 0.18 0.18 0.18 0.20 0.20 0.20 0.20 0.20 0.20 0.22 0.22 0.22 0.22 0.22 0.22 0.22 0.24 0.24
0.32 0.32 0.32 0.30 0.30 0.28 0.28 0.26 0.24 0.22 0.20 0.20 0.20 0.18 0.18 0.18 0.18 0.18 0.18 0.18 0.16 0.16 0.16 0.16 0.16 0.14 0.14 0.14 0.14 0.14 0.14 0.14 0.14 0.14 0.14 0.14 0.14 0.14 0.14 0.14 0.14 0.16 0.16 0.16 0.16 0.16 0.16 0.18 0.18 0.18 0.18 0.18 0.20 0.20 0.20 0.20 0.20 0.20 0.20 0.22 0.22 0.22 0.22 0.22 0.22 0.24 0.24 0.24 0.24
0.32 0.30 0.30 0.30 0.28 0.26 0.26 0.24 0.22 0.22 0.20 0.20 0.18 0.18 0.18 0.18 0.18 0.18 0.18 0.16 0.16 0.16 0.16 0.14 0.14 0.14 0.14 0.14 0.14 0.14 0.14 0.14 0.14 0.14 0.14 0.14 0.14 0.14 0.16 0.16 0.16 0.16 0.16 0.16 0.18 0.18 0.18 0.18 0.18 0.18 0.20 0.20 0.20 0.20 0.20 0.20 0.22 0.22 0.22 0.22 0.22 0.22 0.22 0.22 0.24 0.24 0.24 0.24 0.24
0.30 0.30 0.28 0.28 0.26 0.24 0.24 0.22 0.22 0.20 0.20 0.18 0.18 0.18 0.18 0.18 0.18 0.18 0.16 0.16 0.16 0.16 0.14 0.14 0.14 0.14 0.14 0.14 0.14 0.14 0.14 0.14 0.14 0.14 0.14 0.14 0.16 0.16 0.16 0.16 0.16 0.18 0.18 0.18 0.18 0.18 0.18 0.20 0.20 0.20 0.20 0.20 0.20 0.22 0.22 0.22 0.22 0.22 0.22 0.22 0.22 0.22 0.24 0.24 0.24 0.24 0.24 0.24 0.24
0.28 0.28 0.26 0.24 0.24 0.22 0.22 0.20 0.20 0.20 0.20 0.18 0.18 0.18 0.18 0.18 0.18 0.18 0.16 0.16 0.16 0.14 0.14 0.14 0.14 0.14 0.14 0.14 0.14 0.14 0.14 0.14 0.14 0.14 0.14 0.16 0.16 0.16 0.18 0.18 0.18 0.18 0.18 0.18 0.20 0.20 0.20 0.20 0.20 0.20 0.22 0.22 0.22 0.22 0.22 0.22 0.22 0.24 0.24 0.24 0.24 0.24 0.24 0.26 0.26 0.26 0.26 0.24 0.24
0.26 0.26 0.24 0.24 0.22 0.22 0.20 0.20 0.20 0.20 0.20 0.20 0.18 0.18 0.18 0.18 0.18 0.18 0.16 0.16 0.14 0.14 0.14 0.14 0.14 0.14 0.14 0.14 0.14 0.14 0.14 0.14 0.16 0.16 0.16 0.16 0.18 0.18 0.18 0.18 0.20 0.20 0.20 0.20 0.20 0.20 0.22 0.22 0.22 0.22 0.22 0.24 0.24 0.24 0.24 0.24 0.26 0.26 0.26 0.26 0.26 0.26 0.26 0.28 0.28 0.28 0.26 0.26 0.26
0.24 0.24 0.22 0.22 0.22 0.22 0.20 0.20 0.20 0.20 0.20 0.20 0.18 0.18 0.18 0.18 0.18 0.16 0.16 0.14 0.14 0.14 0.14 0.14 0.14 0.14 0.14 0.14 0.14 0.14 0.16 0.16 0.16 0.16 0.16 0.18 0.18 0.18 0.20 0.20 0.20 0.20 0.20 0.22 0.22 0.22 0.22 0.24 0.24 0.26 0.26 0.26 0.28 0.28 0.28 0.28 0.28 0.28 0.28 0.28 0.28 0.28 0.30 0.30 0.30 0.30 0.30 0.28 0.28
0.24 0.22 0.22 0.22 0.22 0.22 0.20 0.20 0.20 0.20 0.18 0.18 0.18 0.18 0.18 0.18 0.16 0.16 0.14 0.14 0.14 0.14 0.14 0.14 0.14 0.14 0.14 0.16 0.16 0.16 0.16 0.16 0.16 0.16 0.18 0.18 0.18 0.20 0.20 0.22 0.22 0.22 0.22 0.22 0.24 0.24 0.24 0.26 0.26 0.28 0.30 0.30 0.30 0.30 0.30 0.30 0.30 0.30 0.30 0.30 0.30 0.32 0.32 0.32 0.32 0.32 0.32 0.30 0.30
0.22 0.22 0.22 0.22 0.22 0.22 0.20 0.20 0.20 0.20 0.18 0.18 0.18 0.18 0.16 0.16 0.16 0.14 0.14 0.14 0.14 0.14 0.14 0.14 0.14 0.16 0.16 0.16 0.16 0.16 0.16 0.18 0.18 0.18 0.18 0.18 0.20 0.20 0.20 0.22 0.22 0.24 0.24 0.24 0.26 0.26 0.26 0.28 0.28 0.30 0.30 0.32 0.32 0.32 0.32 0.32 0.32 0.32 0.32 0.32 0.32 0.32 0.32 0.32 0.32 0.32 0.32 0.32 0.32
0.22 0.22 0.22 0.22 0.22 0.22 0.20 0.20 0.20 0.18 0.18 0.18 0.18 0.16 0.16 0.14 0.14 0.14 0.14 0.13 0.14 0.14 0.14 0.14 0.14 0.16 0.16 0.16 0.16 0.16 0.18 0.18 0.18 0.18 0.18 0.20 0.20 0.20 0.22 0.22 0.24 0.24 0.26 0.26 0.28 0.28 0.30 0.30 0.32 0.32 0.32 0.32 0.32 0.32 0.32 0.32 0.34 0.34 0.34 0.34 0.32 0.32 0.32 0.32 0.32 0.32 0.34 0.34 0.34
0.24 0.22 0.22 0.22 0.22 0.22 0.20 0.20 0.20 0.18 0.18 0.18 0.16 0.16 0.14 0.14 0.14 0.13 0.13 0.13 0.14 0.14 0.14 0.14 0.16 0.16 0.16 0.16 0.16 0.16 0.18 0.18 0.18 0.20 0.20 0.20 0.20 0.22 0.22 0.24 0.24 0.26 0.28 0.28 0.30 0.30 0.32 0.32 0.34 0.34 0.34 0.34 0.34 0.34 0.32 0.32 0.32 0.34 0.34 0.34 0.32 0.32 0.32 0.32 0.32 0.32 0.32 0.34 0.34
0.24 0.24 0.22 0.22 0.22 0.22 0.20 0.20 0.20 0.18 0.18 0.16 0.16 0.14 0.14 0.13 0.13 0.13 0.13 0.13 0.14 0.14 0.14 0.14 0.16 0.16 0.16 0.16 0.16 0.16 0.18 0.18 0.20 0.20 0.20 0.22 0.22 0.22 0.24 0.24 0.26 0.28 0.28 0.30 0.32 0.32 0.32 0.34 0.34 0.34 0.34 0.34 0.34 0.34 0.34 0.34 0.34 0.34 0.34 0.34 0.32 0.32 0.32 0.32 0.32 0.32 0.32 0.34 0.34
0.24 0.24 0.22 0.22 0.22 0.20 0.20 0.20 0.18 0.18 0.16 0.16 0.14 0.14 0.13 0.13 0.13 0.13 0.13 0.13 0.14 0.14 0.14 0.14 0.14 0.16 0.16 0.16 0.16 0.18 0.18 0.18 0.20 0.20 0.22 0.22 0.24 0.24 0.26 0.26 0.28 0.28 0.30 0.32 0.32 0.34 0.34 0.34 0.34 0.36 0.36 0.36 0.34 0.34 0.34 0.34 0.34 0.34 0.34 0.34 0.32 0.32 0.32 0.32 0.32 0.32 0.32 0.32 0.34
0.24 0.24 0.22 0.22 0.22 0.20 0.20 0.20 0.18 0.16 0.16 0.14 0.14 0.13 0.13 0.13 0.13 0.13 0.13 0.14 0.14 0.14 0.14 0.14 0.14 0.16 0.16 0.16 0.16 0.18 0.18 0.18 0.20 0.22 0.22 0.24 0.24 0.26 0.28 0.28 0.30 0.30 0.32 0.32 0.34 0.34 0.34 0.34 0.36 0.36 0.36 0.36 0.36 0.36 0.34 0.34 0.34 0.34 0.34 0.34 0.34 0.32 0.32 0.32 0.32 0.32 0.32 0.32 0.32
0.24 0.22 0.22 0.22 0.22 0.20 0.20 0.20 0.18 0.16 0.14 0.14 0.13 0.13 0.13 0.13 0.13 0.13 0.14 0.14 0.14 0.14 0.14 0.14 0.14 0.16 0.16 0.16 0.18 0.18 0.18 0.20 0.22 0.22 0.24 0.26 0.26 0.28 0.28 0.30 0.30 0.32 0.32 0.34 0.34 0.34 0.34 0.36 0.36 0.36 0.36 0.36 0.36 0.36 0.36 0.36 0.34 0.34 0.34 0.34 0.34 0.34 0.34 0.34 0.32 0.32 0.32 0.32 0.32
0.24 0.22 0.22 0.22 0.20 0.20 0.18 0.18 0.16 0.14 0.14 0.13 0.13 0.13 0.13 0.13 0.13 0.14 0.14 0.14 0.14 0.14 0.14 0.14 0.14 0.16 0.16 0.16 0.18 0.18 0.20 0.20 0.22 0.24 0.26 0.28 0.28 0.30 0.30 0.30 0.32 0.32 0.34 0.34 0.34 0.34 0.34 0.36 0.36 0.36 0.36 0.36 0.36 0.36 0.36 0.36 0.34 0.34 0.34 0.34 0.34 0.34 0.34 0.34 0.32 0.32 0.32 0.32 0.34
0.24 0.22 0.22 0.20 0.20 0.18 0.18 0.16 0.14 0.13 0.13 0.13 0.13 0.13 0.13 0.14 0.14 0.14 0.14 0.14 0.14 0.14 0.14 0.14 0.16 0.16 0.16 0.18 0.18 0.18 0.20 0.22 0.22 0.26 0.28 0.28 0.30 0.30 0.30 0.32 0.32 0.32 0.34 0.34 0.34 0.36 0.36 0.36 0.36 0.36 0.36 0.36 0.36 0.36 0.36 0.36 0.36 0.34 0.34 0.34 0.34 0.34 0.34 0.34 0.34 0.34 0.34 0.34 0.34
0.22 0.22 0.20 0.20 0.18 0.18 0.16 0.16 0.14 0.13 0.13 0.13 0.13 0.13 0.13 0.14 0.14 0.14 0.13 0.13 0.14 0.14 0.14 0.16 0.16 0.16 0.18 0.18 0.20 0.20 0.22 0.22 0.24 0.26 0.28 0.30 0.30 0.32 0.32 0.32 0.32 0.34 0.34 0.34 0.36 0.36 0.36 0.36 0.36 0.36 0.36 0.36 0.36 0.36 0.36 0.36 0.36 0.34 0.34 0.34 0.34 0.34 0.34 0.34 0.34 0.34 0.34 0.34 0.34
0.22 0.22 0.20 0.18 0.18 0.16 0.16 0.14 0.13 0.13 0.13 0.13 0.13 0.13 0.14 0.14 0.14 0.13 0.13 0.13 0.14 0.14 0.16 0.16 0.16 0.18 0.18 0.20 0.20 0.22 0.22 0.24 0.26 0.28 0.28 0.30 0.32 0.32 0.32 0.32 0.34 0.34 0.34 0.36 0.36 0.36 0.36 0.36 0.36 0.36 0.38 0.36 0.36 0.36 0.36 0.36 0.34 0.34 0.34 0.34 0.34 0.34 0.34 0.34 0.34 0.34 0.34 0.34 0.34
0.22 0.20 0.20 0.18 0.16 0.16 0.14 0.13 0.13 0.13 0.13 0.13 0.13 0.13 0.13 0.13 0.13 0.13 0.13 0.14 0.14 0.14 0.16 0.16 0.18 0.18 0.18 0.20 0.22 0.22 0.24 0.26 0.28 0.28 0.30 0.30 0.32 0.32 0.32 0.32 0.34 0.34 0.34 0.36 0.36 0.36 0.36 0.36 0.36 0.38 0.38 0.36 0.36 0.36 0.36 0.36 0.34 0.34 0.34 0.34 0.34 0.34 0.34 0.34 0.36 0.36 0.36 0.36 0.36
0.22 0.20 0.18 0.18 0.16 0.14 0.14 0.13 0.13 0.13 0.13 0.13 0.13 0.13 0.13 0.13 0.13 0.13 0.13 0.14 0.14 0.14 0.16 0.16 0.18 0.18 0.20 0.20 0.22 0.24 0.26 0.28 0.28 0.30 0.30 0.32 0.32 0.32 0.32 0.32 0.34 0.34 0.36 0.36 0.36 0.36 0.36 0.36 0.38 0.38 0.38 0.36 0.36 0.36 0.36 0.34 0.34 0.34 0.34 0.34 0.34 0.34 0.36 0.36 0.36 0.36 0.36 0.36 0.36
0.20 0.20 0.18 0.16 0.14 0.14 0.13 0.13 0.13 0.13 0.13 0.13 0.13 0.13 0.13 0.13 0.13 0.13 0.14 0.14 0.14 0.14 0.16 0.16 0.18 0.20 0.20 0.22 0.24 0.26 0.28 0.28 0.30 0.30 0.30 0.32 0.32 0.32 0.32 0.32 0.34 0.34 0.36 0.36 0.36 0.36 0.36 0.38 0.38 0.38 0.38 0.36 0.36 0.36 0.36 0.34 0.34 0.34 0.34 0.34 0.34 0.36 0.36 0.36 0.36 0.36 0.36 0.38 0.38
0.20 0.18 0.16 0.16 0.14 0.14 0.13 0.13 0.13 0.13 0.13 0.13 0.13 0.13 0.13 0.13 0.13 0.13 0.14 0.14 0.16 0.16 0.16 0.18 0.18 0.20 0.22 0.24 0.26 0.26 0.28 0.30 0.30 0.32 0.32 0.32 0.32 0.32 0.32 0.34 0.34 0.34 0.36 0.36 0.36 0.36 0.36 0.38 0.38 0.38 0.38 0.36 0.36 0.36 0.36 0.36 0.34 0.34 0.34 0.34 0.36 0.36 0.36 0.36 0.36 0.36 0.38 0.38 0.38
0.18 0.18 0.16 0.14 0.14 0.14 0.13 0.13 0.13 0.13 0.13 0.13 0.13 0.13 0.13 0.13 0.13 0.14 0.14 0.16 0.16 0.16 0.16 0.18 0.20 0.22 0.24 0.26 0.26 0.28 0.28 0.30 0.30 0.32 0.32 0.32 0.32 0.34 0.34 0.34 0.34 0.34 0.36 0.36 0.36 0.36 0.36 0.38 0.38 0.38 0.38 0.38 0.36 0.36 0.36 0.36 0.36 0.34 0.34 0.34 0.36 0.36 0.36 0.36 0.36 0.38 0.38 0.38 0.38
0.18 0.16 0.16 0.14 0.14 0.13 0.13 0.13 0.13 0.13 0.13 0.13 0.13 0.13 0.13 0.13 0.14 0.14 0.14 0.16 0.16 0.16 0.18 0.18 0.22 0.24 0.26 0.26 0.28 0.28 0.28 0.30 0.30 0.32 0.32 0.32 0.34 0.34 0.34 0.34 0.34 0.34 0.34 0.36 0.36 0.36 0.38 0.38 0.38 0.38 0.38 0.38 0.38 0.36 0.36 0.36 0.34 0.34 0.34 0.34 0.36 0.36 0.36 0.36 0.36 0.38 0.38 0.38 0.38
Wind_Speed
37 37 38 38 38 38 39 39 39 39 39 39 39 39 39 39 39 40 40 40 40 40 41 41 41 42 43 44 44 46 47 48 49 50 51 52 52 53 53 54 54 54 54 55 55 55 55 56 56 56 56 56 55 55 55 54 53 53 52 51 50 49 48 48 47 47 47 47 46
37 37 38 38 38 39 39 39 39 39 39 39 39 39 39 39 39 40 40 40 40 41 41 42 42 43 44 46 47 48 49 50 51 52 52 53 53 54 54 55 55 55 55 55 55 55 55 56 56 56 56 56 55 55 55 54 53 52 52 51 50 49 48 48 47 47 47 47 47
37 37 37 38 38 39 39 39 39 39 39 39 39 39 39 39 40 40 40 40 41 42 42 43 44 45 47 48 49 50 51 51 52 53 53 54 54 55 55 55 55 55 55 55 55 55 55 55 55 55 55 55 55 55 55 54 53 52 51 51 50 49 48 47 47 47 46 47 47
37 37 38 38 39 39 39 39 39 39 39 39 39 39 39 40 40 40 41 42 42 43 44 45 46 47 48 49 50 51 52 52 53 54 54 55 55 55 56 56 56 56 56 55 55 55 55 55 54 54 54 54 54 54 54 53 52 51 51 50 49 48 48 47 47 46 46 46 47
37 38 38 39 39 39 39 39 39 39 39 39 39 39 40 40 40 41 42 43 44 45 46 47 48 49 50 51 52 52 53 53 54 54 55 55 56 56 56 56 56 56 56 55 55 55 54 54 53 53 53 53 52 52 52 52 51 51 50 50 49 48 48 48 47 46 46 46 47
38 38 39 39 39 39 39 39 39 39 39 39 39 40 40 41 41 42 43 44 45 47 48 48 49 50 51 52 52 53 54 54 55 55 55 56 56 56 56 56 56 56 56 55 55 54 54 53 53 52 52 51 51 51 51 51 50 50 50 49 49 49 48 48 47 47 47 47 47
38 38 38 38 38 38 38 38 39 39 39 39 40 40 41 42 42 44 45 46 47 48 49 50 50 51 52 53 53 54 54 55 55 55 56 56 56 56 56 56 56 56 55 55 54 54 53 53 52 51 51 51 51 51 51 50 50 50 49 49 49 48 48 48 48 47 47 48 48
38 38 38 38 38 38 38 39 39 39 39 40 40 41 42 43 44 45 46 47 48 49 50 51 51 52 53 53 54 54 55 55 55 56 56 56 56 56 56 56 56 55 55 54 54 53 53 52 51 51 51 51 51 50 50 50 50 50 50 50 49 49 48 48 48 48 48 48 48
37 37 37 38 38 38 38 39 39 39 39 40 41 42 43 44 45 47 48 49 49 50 51 52 52 53 53 54 54 55 55 55 55 55 55 56 56 56 55 55 55 54 54 53 53 53 52 52 51 51 51 51 51 51 51 51 51 51 51 50 50 50 49 49 48 48 48 48 48
37 37 37 38 38 38 38 39 39 39 40 41 42 43 44 46 47 48 49 50 50 51 52 52 53 53 54 54 54 54 54 55 55 55 55 55 55 55 55 54 54 54 53 53 52 52 52 52 52 52 52 52 52 52 52 52 51 51 51 51 50 50 50 50 49 49 49 49 49
37 37 38 38 38 38 38 39 39 40 41 42 43 45 46 47 48 49 50 51 51 52 52 53 53 53 53 54 54 54 54 54 54 55 55 55 55 55 54 54 54 54 54 53 53 53 52 52 52 52 52 52 52 52 52 52 52 52 52 51 51 51 51 51 50 50 50 49 49
37 37 38 38 38 38 38 39 40 41 42 43 45 46 47 48 49 50 51 51 52 52 52 53 53 53 53 53 53 54 54 54 54 55 55 55 55 54 54 54 54 54 54 54 53 53 53 53 53 53 52 52 51 51 51 51 51 51 51 51 51 51 51 51 51 50 50 50 50
37 37 37 38 38 38 39 40 41 42 43 45 46 47 48 49 50 50 51 51 52 52 52 52 52 53 53 53 53 54 54 54 54 54 54 54 54 54 54 54 54 54 54 54 53 53 52 52 52 52 52 51 50 50 50 49 49 49 50 50 50 50 50 51 51 50 50 50 50
37 37 37 37 38 39 40 41 42 43 45 46 47 48 49 49 50 50 51 51 51 52 52 52 52 52 52 53 53 53 54 54 54 54 54 54 54 54 54 54 54 54 54 53 53 52 52 51 51 50 50 50 49 49 48 48 48 48 48 48 49 49 49 50 50 50 50 50 50
37 37 37 38 39 40 41 42 43 44 46 47 48 48 49 50 50 50 51 51 51 52 52 52 52 52 52 53 53 53 53 53 54 54 54 54 55 55 55 55 54 54 53 53 52 51 50 50 49 49 48 48 48 47 47 47 47 47 47 47 48 48 48 48 49 49 49 49 50
36 37 38 39 40 41 42 43 44 45 46 47 48 49 49 50 50 50 50 51 51 51 51 52 52 52 52 52 53 53 53 53 54 54 54 55 55 55 55 54 54 53 52 51 50 49 48 48 47 46 46 46 46 46 46 46 46 46 46 46 46 47 47 47 47 48 48 48 49
37 38 39 40 41 42 43 44 45 46 47 48 49 49 50 50 50 50 50 51 51 51 52 52 52 52 52 52 52 53 53 54 54 54 55 55 55 54 54 53 52 51 50 49 48 48 47 46 45 45 45 44 44 44 44 44 44 44 45 45 45 45 46 46 46 47 47 47 48
37 38 39 41 42 43 44 45 46 47 48 48 49 49 49 50 50 50 50 51 51 51 52 52 52 52 52 53 53 53 53 54 54 54 54 54 54 53 52 51 50 49 48 47 46 46 45 44 44 43 43 43 43 42 42 42 42 43 43 43 44 44 44 45 45 45 45 46 47
38 39 40 41 42 43 44 45 46 47 48 48 49 49 49 50 50 50 51 51 51 51 52 52 52 52 52 53 53 53 54 54 54 54 54 53 52 51 50 49 48 47 46 45 45 44 43 43 42 41 41 41 41 40 40 41 41 41 41 42 42 42 43 43 44 44 44 44 45
39 40 41 42 43 44 45 46 46 47 48 48 49 49 50 50 50 50 51 51 51 51 51 52 52 53 53 53 54 54 54 53 53 53 52 51 50 49 48 47 46 45 44 43 43 42 41 40 40 40 39 39 39 39 39 39 40 40 40 40 41 41 41 42 42 42 43 43 44
39 40 41 42 43 44 45 46 47 47 48 49 49 50 50 50 50 50 51 51 51 51 52 52 52 53 53 54 54 54 53 52 51 50 50 49 48 47 46 45 44 43 42 41 40 40 39 39 38 38 38 38 38 38 38 38 38 39 39 39 39 39 40 40 41 41 41 42 42
39 40 41 42 43 44 45 46 47 47 48 49 49 50 50 50 50 50 51 51 51 51 52 52 53 53 53 53 53 53 52 50 49 48 47 46 45 45 44 43 42 41 40 39 39 38 38 37 37 37 37 37 37 37 37 37 37 38 38 38 38 38 38 39 39 39 40 40 41
39 40 41 42 43 44 45 46 47 48 49 49 50 50 50 50 50 50 51 51 51 51 52 52 53 53 53 52 52 51 50 49 47 46 45 44 43 43 42 41 40 39 38 37 37 37 36 36 36 36 36 36 36 36 36 36 36 36 36 37 37 37 37 37 37 37 38 38 39
39 41 42 43 44 45 46 47 48 48 49 49 50 50 50 50 50 50 50 51 51 51 52 52 52 52 52 51 50 48 47 46 45 45 44 43 42 41 40 39 38 37 36 36 35 35 35 35 35 35 35 35 35 35 35 35 35 35 35 35 35 35 35 35 35 36 36 36 37
40 41 42 43 45 46 47 47 48 49 49 49 50 50 50 50 50 50 50 51 51 52 52 52 52 51 50 48 47 46 45 44 43 43 42 41 40 39 38 37 36 36 35 35 35 35 35 35 34 34 34 34 34 33 33 34 34 34 34 34 34 35 35 35 35 35 35 35 36
41 42 43 44 45 46 47 48 48 49 49 49 50 50 50 50 50 50 51 51 51 51 51 51 50 49 47 46 45 44 43 42 41 41 40 39 38 37 37 36 35 34 34 34 34 35 34 34 34 34 33 33 33 33 33 33 33 33 34 34 34 35 35 35 35 35 35 35 35
42 43 44 45 46 47 48 48 49 49 49 49 49 49 49 50 50 50 51 51 51 51 50 49 48 46 45 44 43 42 41 41 40 40 39 38 37 36 36 35 34 33 33 33 34 34 34 34 34 34 33 33 33 33 33 33 34 34 34 35 35 35 36 36 36 36 35 35 35
42 43 44 46 46 47 48 49 49 49 49 49 49 49 49 50 50 50 51 51 50 50 48 47 45 44 42 41 41 41 40 40 39 38 37 36 36 35 35 34 33 33 33 33 33 33 33 33 33 33 33 33 33 33 34 34 35 35 35 36 36 36 36 37 36 36 36 36 35
43 44 45 46 47 48 48 49 49 49 49 49 49 49 49 50 50 50 50 50 49 48 46 45 43 42 41 40 40 40 39 39 38 37 36 35 35 34 34 33 33 32 32 33 33 33 33 33 33 33 34 34 34 34 34 35 35 36 36 36 36 36 36 37 36 36 36 36 36
43 44 45 46 47 48 48 49 49 49 49 49 49 49 49 50 50 50 49 49 47 46 44 43 41 40 40 40 39 39 38 37 36 36 35 35 34 34 33 33 32 32 32 32 32 32 32 32 33 33 34 34 34 34 35 35 36 36 37 37 37 37 37 37 37 37 36 36 36
44 45 45 46 47 48 48 48 48 48 48 48 49 49 49 49 49 49 48 47 46 44 42 41 40 40 39 39 38 38 37 36 35 35 34 34 33 33 33 32 32 32 31 31 32 32 32 32 33 33 33 34 34 34 35 36 36 37 37 37 37 37 37 37 36 36 36 36 36
44 45 46 47 47 48 48 48 48 48 48 48 49 49 49 49 48 47 46 45 44 42 41 40 39 39 39 38 37 37 36 35 35 34 34 33 33 32 32 32 31 31 31 31 31 31 32 32 32 33 33 34 35 35 36 36 37 37 37 37 37 37 36 36 36 36 36 36 35
44 45 46 47 47 48 48 48 48 48 48 48 48 48 48 48 47 46 45 43 42 40 40 39 38 38 38 37 36 36 35 35 34 34 33 33 32 32 32 31 31 30 30 31 31 31 32 32 33 33 34 35 35 36 36 37 37 37 37 37 36 36 36 36 36 35 35 35 35
44 45 46 47 47 47 47 48 48 48 48 48 48 48 47 47 46 44 43 41 40 39 38 38 37 37 36 36 35 35 35 34 33 33 32 32 32 31 31 31 30 30 30 31 31 32 32 33 33 34 34 35 35 35 36 36 36 36 36 36 36 36 36 36 36 35 35 35 35
44 45 46 47 47 47 47 47 47 47 48 48 47 47 46 45 44 42 41 40 39 38 37 37 36 36 35 35 34 34 34 33 33 32 32 31 31 31 31 30 30 30 30 31 31 32 32 33 33 34 34 34 34 34 35 35 36 36 36 36 36 36 36 35 35 35 35 35 35
45 45 46 46 47 47 47 47 47 47 47 47 47 46 45 44 42 41 39 39 38 37 37 36 35 35 34 34 33 33 33 32 32 31 31 30 30 30 30 30 30 30 30 31 31 31 32 32 33 33 33 33 33 33 33 34 34 35 36 36 36 36 36 36 36 36 35 35 35
45 45 46 46 46 47 47 47 47 47 47 46 46 45 43 42 41 39 38 37 37 36 36 35 35 34 34 33 33 32 32 31 31 31 30 30 30 30 30 30 30 30 30 30 31 31 31 32 32 32 32 32 31 32 32 33 34 35 35 36 36 36 36 35 35 36 36 35 35
45 45 45 46 46 46 46 46 46 46 46 45 44 43 42 41 39 38 37 36 36 35 35 34 34 33 33 32 32 32 31 31 30 30 30 29 29 29 29 29 29 29 29 30 30 31 31 31 32 32 31 31 31 31 31 32 33 34 35 36 36 36 36 35 35 35 35 35 35
44 45 45 46 46 46 46 46 46 45 45 44 43 42 41 39 38 37 36 36 35 35 34 34 33 33 32 32 31 31 30 30 29 29 29 28 28 28 29 29 29 29 29 29 30 31 31 31 31 31 31 31 30 30 31 31 33 34 35 35 36 36 36 35 35 35 35 35 35
44 45 45 45 45 46 46 45 45 45 44 43 42 41 39 38 37 36 36 35 34 34 33 32 32 32 31 31 31 30 30 29 29 28 28 28 28 28 29 29 29 29 29 29 30 30 31 31 31 32 32 31 30 30 30 31 31 32 33 33 34 34 35 35 35 34 34 34 33
44 44 45 45 45 45 45 45 44 44 43 41 40 39 38 37 36 36 35 34 33 33 32 31 31 31 31 30 30 29 29 29 28 27 27 27 27 28 28 28 28 29 29 29 30 30 31 31 31 32 32 31 31 30 30 30 30 30 31 31 32 32 33 33 33 33 32 32 31
Wind_Direction
289 290 290 291 291 292 292 293 293 293 294 294 294 294 295 295 295 295 295 295 295 294 294 294 293 293 293 292 292 292 292 292 292 291 291 291 291 291 291 291 291 290 290 290 289 289 288 288 287 287 286 286 285 285 284 283 283 282 281 280 278 277 275 273 272 270 268 267 266
290 290 291 291 292 292 293 293 294 294 295 295 295 296 296 295 296 296 296 295 295 295 295 295 294 294 294 293 293 293 293 293 293 292 292 292 292 292 292 292 291 291 291 291 290 290 289 288 287 287 286 285 285 284 283 282 282 281 280 278 277 276 274 272 270 269 267 266 265
291 291 291 292 292 293 294 294 295 296 296 296 296 296 296 296 296 297 296 296 296 296 296 295 295 295 295 294 294 294 294 294 293 293 293 293 293 293 293 292 292 292 292 291 291 290 289 289 288 287 286 285 284 283 282 281 280 279 278 277 276 275 273 271 270 268 266 265 264
291 292 292 293 293 294 295 296 296 297 297 297 297 297 297 297 297 297 297 297 297 297 296 296 296 296 296 295 295 295 294 294 294 294 294 294 293 293 293 293 293 293 292 292 291 290 289 288 287 286 285 284 283 282 281 280 279 278 277 276 275 273 272 271 269 267 265 264 263
292 293 293 294 294 295 296 297 297 298 298 298 298 298 298 298 298 298 298 298 297 297 297 297 297 296 296 296 295 295 295 295 294 294 294 294 294 294 294 294 293 293 292 292 291 290 289 288 287 286 285 284 283 282 281 280 278 277 276 275 274 272 271 270 268 267 265 263 262
293 294 294 295 296 297 297 298 298 298 298 298 299 299 299 299 299 298 298 298 298 298 298 297 297 297 296 296 296 296 295 295 295 295 295 295 295 295 294 294 293 293 292 291 290 289 288 287 286 285 284 283 282 281 280 279 278 277 276 274 273 272 270 269 268 266 265 263 261
294 295 296 296 297 297 298 298 298 298 299 299 299 299 299 299 299 299 299 298 298 298 298 298 297 297 297 297 297 296 296 296 296 296 296 296 295 295 295 294 293 293 292 291 290 289 288 287 286 285 284 283 282 281 280 279 278 277 275 274 273 271 270 269 267 266 264 262 261
295 296 297 297 298 298 298 299 299 299 299 300 299 299 299 299 299 299 299 299 299 299 298 298 298 298 298 297 297 297 297 297 297 297 296 296 296 295 295 294 293 293 292 291 290 289 288 287 285 285 284 283 282 281 280 279 277 276 275 274 273 272 270 269 267 266 264 262 261
296 297 297 298 298 298 299 299 299 300 300 300 300 300 300 300 300 300 300 299 299 299 299 299 299 299 298 298 298 298 298 298 298 297 297 296 296 296 295 294 294 293 292 291 290 289 288 287 286 284 283 282 281 280 279 278 277 276 275 274 273 271 270 269 267 265 264 262 261
296 297 298 298 299 299 300 300 300 300 300 300 300 300 300 300 300 300 300 300 300 300 300 300 300 299 299 299 299 299 299 298 298 298 297 297 296 296 295 295 294 293 292 291 290 289 288 287 286 285 283 282 281 280 279 278 277 275 274 273 272 271 270 268 267 265 264 262 261
297 298 298 299 299 300 300 300 300 300 300 300 300 301 301 301 301 301 301 301 301 301 301 301 300 300 300 300 300 300 299 299 299 298 298 297 297 296 295 295 294 293 292 292 291 290 288 287 286 285 284 283 281 280 279 278 276 275 274 273 272 271 269 268 267 265 264 262 261
298 298 299 299 300 300 300 300 300 301 301 301 301 302 302 302 302 302 302 302 302 302 301 301 301 301 301 301 300 300 300 300 299 298 298 297 297 296 295 295 294 293 292 292 291 290 288 287 286 285 284 283 281 280 279 277 276 275 273 272 271 270 269 268 266 265 264 262 260
298 299 299 300 300 301 301 301 301 302 302 302 303 303 303 303 303 303 303 303 303 302 302 302 302 302 302 301 301 301 300 300 299 299 298 297 297 296 295 295 294 293 292 291 291 289 288 287 286 285 284 282 281 280 279 277 276 274 273 272 271 269 268 267 266 265 264 262 260
299 300 300 301 301 302 302 302 303 303 303 304 304 304 304 304 304 304 304 304 303 303 303 303 303 302 302 302 302 301 301 300 299 299 298 298 297 296 296 295 294 293 292 291 290 289 288 287 286 285 284 282 281 280 279 277 276 274 273 272 270 269 268 267 266 265 263 262 260
300 301 301 302 303 303 303 304 304 304 305 305 305 305 305 305 305 305 305 304 304 304 304 303 303 303 303 302 302 301 301 300 300 299 298 298 297 296 296 295 294 293 292 291 290 289 288 287 286 285 284 282 281 280 279 277 276 275 273 272 271 270 268 267 266 265 263 262 260
302 302 303 304 304 304 305 305 305 305 306 306 306 306 306 306 305 305 305 305 304 304 304 304 304 303 303 303 302 302 301 301 300 299 299 298 297 297 296 295 294 293 293 292 291 289 288 287 286 285 284 282 281 280 279 278 276 275 274 272 271 270 269 267 266 265 263 262 260
303 304 304 305 305 305 305 306 306 306 306 306 306 306 306 306 306 306 305 305 305 305 305 304 304 304 303 303 303 302 301 301 300 300 299 298 298 297 296 295 295 294 293 292 291 290 289 287 286 285 284 283 281 280 279 278 276 275 274 272 271 270 269 268 267 265 264 262 260
304 305 305 305 306 306 306 306 306 307 307 307 307 307 307 306 306 306 306 306 306 306 305 305 305 304 304 303 303 302 302 301 300 300 299 298 298 297 296 296 295 294 293 292 291 290 289 288 287 285 284 283 281 280 279 278 276 275 274 273 271 270 269 268 267 266 264 263 261
305 305 306 306 306 307 307 307 307 307 307 307 307 307 307 307 307 307 307 307 306 306 306 305 305 304 304 303 303 302 302 301 301 300 299 299 298 297 297 296 295 294 293 292 291 290 289 288 287 285 284 283 281 280 279 278 277 275 274 273 272 271 270 268 267 266 265 264 262
305 306 306 307 307 307 308 308 308 308 308 308 308 308 308 308 308 307 307 307 307 307 306 306 305 305 304 304 303 303 302 301 301 300 299 299 298 297 297 296 295 294 293 292 291 290 289 288 286 285 284 283 281 280 279 278 277 276 275 274 273 272 271 269 268 267 265 264 263
306 306 307 307 308 308 309 309 309 309 309 309 309 309 309 308 308 308 308 308 307 307 306 306 305 305 305 304 304 303 302 302 301 300 300 299 298 298 297 296 295 294 293 292 291 290 289 287 286 285 284 283 282 281 280 279 278 277 276 275 274 273 272 271 269 268 266 265 264
306 307 308 308 309 310 310 310 311 311 310 310 310 310 309 309 309 309 308 308 308 307 307 306 306 305 305 304 304 303 303 302 301 300 300 299 299 298 297 296 295 294 293 292 291 290 289 287 286 285 284 283 282 281 280 279 279 278 277 276 275 274 273 272 271 269 267 266 264
307 308 309 310 311 311 311 312 312 312 311 311 311 310 310 310 309 309 309 308 308 307 307 307 306 306 305 305 304 303 303 302 301 301 300 299 299 298 297 296 295 294 293 292 291 290 289 288 286 285 284 283 282 281 280 279 279 278 277 277 276 275 274 273 272 270 269 267 265
308 309 310 311 312 312 313 313 313 312 312 311 311 311 310 310 310 309 309 309 308 308 307 307 307 306 305 305 304 303 303 302 302 301 301 300 299 298 297 296 295 294 293 292 291 290 289 288 287 286 284 283 282 281 280 280 279 278 278 277 276 275 274 273 272 271 270 268 267
310 311 312 312 313 314 314 314 313 313 312 312 312 311 311 311 310 310 310 309 309 308 308 308 307 306 306 305 304 304 303 303 302 302 301 300 300 299 298 297 295 294 293 292 291 290 289 288 287 286 285 284 283 282 281 280 279 278 278 277 277 276 275 274 273 271 270 268 267
311 312 313 313 314 314 314 314 314 313 313 312 312 312 311 311 311 310 310 310 309 309 309 308 307 307 306 305 305 304 304 303 303 302 301 301 300 299 298 297 296 295 294 293 291 290 289 288 287 286 285 284 283 282 281 280 280 279 279 278 278 277 276 275 274 272 271 269 267
312 313 314 314 315 315 315 314 314 314 313 313 312 312 312 312 311 311 311 310 310 310 309 308 308 307 306 306 305 305 304 304 303 303 302 301 300 299 298 297 296 295 294 293 292 291 290 289 287 286 285 284 283 282 281 281 280 280 279 278 278 277 276 276 275 274 272 271 269
313 314 314 315 315 315 315 315 314 314 314 313 313 313 312 312 312 312 311 311 311 310 310 309 308 308 307 306 306 305 305 304 304 303 302 301 300 299 299 298 297 296 295 294 293 292 291 289 288 287 285 284 283 282 282 281 281 280 279 278 277 276 276 275 275 274 273 272 270
314 314 315 315 315 315 315 315 315 314 314 314 313 313 313 313 312 312 312 312 311 311 310 309 309 308 307 307 306 306 305 305 304 304 303 302 301 300 299 298 297 296 296 295 294 293 292 290 289 288 286 285 284 283 282 282 281 281 280 278 277 276 275 274 274 274 273 272 271
314 315 315 315 316 316 316 315 315 315 314 314 314 314 313 313 313 313 313 312 312 311 310 309 309 308 307 307 307 306 306 305 305 304 303 302 301 300 299 299 298 297 297 296 295 294 293 291 290 288 287 286 285 284 283 283 282 281 280 279 277 276 275 274 273 273 272 272 271
314 315 315 316 316 316 316 316 315 315 315 315 314 314 314 314 314 313 313 312 312 311 310 309 309 308 308 307 307 307 306 306 305 304 303 302 301 300 300 299 299 298 298 297 296 295 293 292 290 289 288 287 286 285 284 284 283 282 281 280 279 277 276 275 273 272 271 271 270
315 316 316 316 316 316 316 316 316 315 315 315 315 315 315 314 314 314 313 313 312 311 310 310 309 309 308 308 308 307 306 306 305 305 304 303 302 301 300 300 299 299 299 298 296 295 294 292 291 290 289 288 287 286 285 285 284 283 282 281 279 278 277 275 274 273 271 270 269
316 316 317 317 317 317 316 316 316 316 316 315 315 315 315 315 314 314 313 313 312 311 311 310 310 309 309 308 308 307 307 306 306 305 304 303 302 301 301 301 300 300 299 298 297 296 295 294 292 291 290 289 288 287 286 285 284 283 282 281 280 279 277 275 274 273 271 270 268
317 317 317 317 317 317 317 316 316 316 316 316 316 316 315 315 315 314 314 313 312 312 311 310 310 310 309 309 308 308 307 307 306 306 305 304 303 302 301 301 301 301 300 299 298 297 297 296 294 293 292 290 289 288 287 285 284 283 282 281 280 279 277 275 273 272 271 269 268
317 318 318 317 317 317 317 317 317 317 316 316 316 316 316 316 315 314 314 313 312 312 311 311 310 310 309 309 308 308 308 307 307 306 305 304 303 303 302 302 301 301 300 300 300 300 299 298 296 295 293 292 290 289 287 285 284 283 282 281 280 279 277 275 273 271 270 269 267
318 318 318 318 318 317 317 317 317 317 317 317 317 316 316 316 315 315 314 313 313 312 312 311 311 310 310 309 309 309 308 308 307 306 305 304 304 303 303 302 302 302 302 302 302 302 301 299 298 296 294 293 290 288 286 285 283 282 281 280 279 278 276 274 273 271 270 269 267
318 318 318 318 318 318 318 318 318 318 317 317 317 317 317 316 315 315 314 314 313 313 312 312 311 311 310 310 310 309 309 308 307 307 306 305 304 304 304 303 303 304 304 304 304 303 302 301 299 297 295 293 290 287 285 283 282 281 280 280 279 277 276 274 272 271 270 268 267
319 319 318 318 318 318 318 318 318 318 318 318 317 317 317 316 316 315 315 315 314 313 313 312 312 311 311 310 310 310 310 309 308 307 306 306 305 305 305 305 305 305 305 305 305 304 303 302 300 299 296 293 290 287 284 282 281 280 279 279 278 277 275 274 273 271 270 268 267
319 319 319 319 318 318 318 318 318 318 318 318 318 317 317 317 316 316 315 315 314 314 313 312 312 311 311 311 311 311 310 309 308 307 307 306 306 306 306 306 306 306 306 306 306 305 304 303 302 300 297 294 290 287 284 282 281 280 279 278 277 276 275 273 272 271 270 268 266
319 319 319 319 319 319 319 319 319 319 319 318 318 318 317 317 316 316 316 315 315 314 313 312 312 312 312 312 312 311 311 310 309 308 307 307 307 307 307 307 307 307 307 307 307 306 305 304 303 301 298 295 292 289 287 285 283 282 281 279 278 276 275 273 272 271 270 268 266
319 319 319 319 319 319 319 319 319 319 319 319 318 318 317 317 317 316 316 316 315 314 313 313 312 313 313 313 312 312 311 311 310 309 308 308 308 308 308 308 308 308 308 308 307 307 306 305 303 302 300 297 295 292 290 288 287 286 284 283 280 278 276 274 273 271 269 268 266